Date,TemperatureHighF,TemperatureAvgF,TemperatureLowF,DewpointHighF,DewpointAvgF,DewpointLowF,HumidityHigh,HumidityAvg,HumidityLow,PressureMaxIn,PressureMinIn,WindSpeedMaxMPH,WindSpeedAvgMPH,GustSpeedMaxMPH,PrecipitationSumIn
2013-8-1,83.8,73.0,66.6,69.5,66.4,64.2,93,80,59,29.92,29.73,1,0,5,0.06
2013-8-2,87.0,73.4,62.7,66.1,60.7,54.6,92,68,36,29.90,29.80,3,0,10,0.00
2013-8-3,73.5,67.9,64.5,67.6,63.0,58.2,93,84,71,29.91,29.86,3,0,6,0.16
2013-8-4,80.7,68.2,57.8,63.1,56.8,49.6,94,71,37,29.98,29.87,3,0,11,0.00
2013-8-5,81.8,67.0,54.5,58.1,54.2,48.9,90,66,33,30.05,29.94,1,0,3,0.00
2013-8-6,80.1,69.4,63.7,67.4,62.5,56.8,93,79,60,29.99,29.92,1,0,3,0.10
2013-8-7,86.3,74.1,68.4,71.7,67.5,64.0,92,81,58,29.98,29.89,0,0,5,0.65
2013-8-8,81.4,74.1,67.8,74.6,70.0,65.7,94,88,71,29.94,29.88,1,0,3,0.14
2013-8-9,84.9,77.2,72.3,74.1,70.8,68.2,93,82,61,29.90,29.79,7,1,14,0.12
2013-8-10,85.1,74.8,69.1,68.6,64.9,56.6,90,73,42,30.01,29.88,1,0,3,0.01
2013-8-11,89.5,75.1,66.8,70.4,65.8,63.5,91,74,45,30.04,29.92,1,0,5,0.00
2013-8-12,89.9,76.3,66.3,69.0,66.0,63.4,92,73,44,29.95,29.83,1,0,7,0.00
2013-8-13,86.1,74.7,67.1,69.8,66.0,56.0,92,75,51,29.82,29.66,2,0,6,0.41
2013-8-14,73.5,64.7,54.5,56.7,49.7,46.6,81,59,43,30.05,29.78,4,1,10,0.00
2013-8-15,79.4,62.9,49.9,54.3,49.4,43.0,92,66,32,30.14,30.04,1,0,5,0.00
2013-8-16,83.0,64.3,50.4,57.8,52.5,47.6,91,69,35,30.12,30.06,1,0,3,0.00
2013-8-17,82.0,66.9,52.8,60.4,55.4,49.6,92,69,42,30.20,30.12,1,0,5,0.00
2013-8-18,69.9,65.3,61.3,60.9,59.1,55.3,90,81,61,30.19,30.11,1,0,6,0.18
2013-8-19,78.8,67.4,58.7,67.4,61.8,56.1,93,83,65,30.12,29.99,0,0,2,0.01
2013-8-20,87.4,71.9,62.0,67.7,62.6,59.6,93,76,41,30.12,30.02,1,0,3,0.00
2013-8-21,91.2,74.3,63.4,72.2,65.8,60.5,91,76,47,30.13,29.99,2,0,4,0.03
2013-8-22,87.0,75.7,66.8,67.7,65.1,62.8,91,71,49,30.01,29.85,2,0,7,0.00
2013-8-23,71.6,68.5,62.1,66.6,64.0,59.1,91,86,76,30.07,29.88,1,0,2,0.43
2013-8-24,83.8,67.8,57.6,62.3,58.5,55.3,93,75,42,30.26,30.07,1,0,4,0.01
2013-8-25,85.9,68.3,55.6,63.4,57.8,52.7,92,72,39,30.35,30.19,1,0,5,0.00
2013-8-26,88.4,72.4,59.8,64.9,60.7,56.5,90,69,40,30.20,29.93,2,0,8,0.00
2013-8-27,88.4,77.1,68.1,72.2,66.3,61.1,82,70,54,29.93,29.81,3,0,7,0.00
2013-8-28,74.9,72.8,70.4,71.7,68.8,66.1,92,88,75,29.85,29.74,2,0,5,0.63
2013-8-29,85.5,75.4,68.8,70.6,67.9,65.2,92,79,53,29.94,29.78,1,0,6,0.01
2013-8-30,91.6,75.0,64.0,69.9,66.3,61.6,93,76,47,29.96,29.79,2,0,5,0.00
2013-8-31,90.5,78.3,69.4,72.2,68.5,65.4,89,73,49,29.79,29.70,2,0,5,0.00